04-09-2022, 00:00:08,    127,    0.8,   15.0,   0.00,   0.00, 1009.0,   68.7, -999.0
04-09-2022, 00:00:18,    127,    0.7,   14.9,   0.00,   0.00, 1009.0,   68.5, -999.0
04-09-2022, 00:00:28,    127,    0.1,   14.8,   0.00,   0.00, 1008.9,   68.3, -999.0
04-09-2022, 00:00:38,    126,    0.0,   14.8,   0.00,   0.00, 1008.9,   68.3, -999.0
04-09-2022, 00:00:48,    165,    0.2,   14.8,   0.00,   0.00, 1008.9,   68.3, -999.0
04-09-2022, 00:00:58,    164,    0.0,   14.7,   0.00,   0.00, 1008.8,   68.2, -999.0
04-09-2022, 00:01:08,    164,    0.0,   14.7,   0.00,   0.00, 1008.8,   68.2, -999.0
04-09-2022, 00:01:18,    164,    0.0,   14.8,   0.00,   0.00, 1008.8,   68.3, -999.0
04-09-2022, 00:01:28,    164,    0.0,   14.7,   0.00,   0.00, 1008.8,   68.2, -999.0
04-09-2022, 00:01:38,    164,    0.0,   14.8,   0.00,   0.00, 1008.8,   68.2, -999.0
04-09-2022, 00:01:48,    164,    0.3,   14.7,   0.00,   0.00, 1008.9,   68.4, -999.0
04-09-2022, 00:01:58,    164,    0.0,   14.8,   0.00,   0.00, 1008.9,   68.2, -999.0
04-09-2022, 00:02:07,    164,    0.0,   14.8,   0.00,   0.00, 1008.9,   68.3, -999.0
04-09-2022, 00:02:17,     89,    0.7,   14.8,   0.00,   0.00, 1008.9,   68.5, -999.0
04-09-2022, 00:02:28,     98,    0.7,   14.8,   0.00,   0.00, 1008.9,   68.7, -999.0
04-09-2022, 00:02:37,     98,    0.0,   14.8,   0.00,   0.00, 1008.8,   68.5, -999.0
04-09-2022, 00:02:47,     98,    0.0,   14.8,   0.00,   0.00, 1008.8,   68.5, -999.0
04-09-2022, 00:02:57,    101,    0.0,   14.8,   0.00,   0.00, 1008.8,   68.3, -999.0
04-09-2022, 00:03:07,    101,    0.0,   14.8,   0.00,   0.00, 1008.9,   68.4, -999.0
04-09-2022, 00:03:17,    101,    0.0,   14.6,   0.00,   0.00, 1008.9,   68.3, -999.0
04-09-2022, 00:03:27,    163,    0.0,   14.7,   0.00,   0.00, 1008.9,   68.4, -999.0
04-09-2022, 00:03:37,    157,    0.0,   14.7,   0.00,   0.00, 1008.8,   68.5, -999.0
04-09-2022, 00:03:47,    157,    0.5,   14.8,   0.00,   0.00, 1009.0,   68.9, -999.0
04-09-2022, 00:03:57,    162,    2.5,   14.9,   0.00,   0.00, 1009.0,   68.9, -999.0
04-09-2022, 00:04:07,    164,    2.9,   14.8,   0.00,   0.00, 1009.0,   69.1, -999.0
04-09-2022, 00:04:17,    162,    1.5,   14.7,   0.00,   0.00, 1009.0,   69.1, -999.0
04-09-2022, 00:04:27,    162,    0.5,   14.8,   0.00,   0.00, 1008.9,   69.0, -999.0
04-09-2022, 00:04:37,    163,    0.1,   14.7,   0.00,   0.00, 1008.9,   68.8, -999.0
04-09-2022, 00:04:46,    162,    0.4,   14.8,   0.00,   0.00, 1008.9,   69.0, -999.0
04-09-2022, 00:04:57,    162,    0.0,   14.8,   0.00,   0.00, 1008.8,   68.6, -999.0
04-09-2022, 00:05:07,    162,    0.2,   14.8,   0.00,   0.00, 1008.9,   68.9, -999.0
04-09-2022, 00:05:16,    162,    0.0,   14.7,   0.00,   0.00, 1008.8,   68.6, -999.0
04-09-2022, 00:05:26,    162,    0.0,   14.8,   0.00,   0.00, 1008.9,   68.7, -999.0
04-09-2022, 00:05:37,    162,    1.1,   14.9,   0.00,   0.00, 1009.0,   69.1, -999.0
04-09-2022, 00:05:46,    161,    0.1,   14.9,   0.00,   0.00, 1008.9,   68.7, -999.0
04-09-2022, 00:05:56,    161,    0.0,   14.9,   0.00,   0.00, 1008.8,   68.6, -999.0
04-09-2022, 00:06:06,    161,    0.0,   14.8,   0.00,   0.00, 1008.8,   68.5, -999.0
04-09-2022, 00:06:16,    161,    0.0,   14.8,   0.00,   0.00, 1008.8,   68.5, -999.0
04-09-2022, 00:06:26,    161,    0.0,   14.9,   0.00,   0.00, 1008.8,   68.5, -999.0
04-09-2022, 00:06:36,    161,    0.0,   14.9,   0.00,   0.00, 1008.8,   68.5, -999.0
04-09-2022, 00:06:46,    161,    0.0,   14.8,   0.00,   0.00, 1008.8,   68.4, -999.0
04-09-2022, 00:06:56,    162,    0.0,   14.9,   0.00,   0.00, 1008.8,   68.4, -999.0
04-09-2022, 00:07:06,    162,    0.0,   14.9,   0.00,   0.00, 1008.8,   68.4, -999.0
04-09-2022, 00:07:16,    161,    0.0,   14.7,   0.00,   0.00, 1008.9,   68.5, -999.0
04-09-2022, 00:07:26,    162,    0.0,   14.8,   0.00,   0.00, 1008.9,   68.5, -999.0
04-09-2022, 00:07:36,    161,    0.0,   14.8,   0.00,   0.00, 1008.9,   68.5, -999.0
04-09-2022, 00:07:46,    161,    0.0,   14.8,   0.00,   0.00, 1008.9,   68.5, -999.0
04-09-2022, 00:07:56,    161,    0.0,   14.7,   0.00,   0.00, 1008.8,   68.5, -999.0
04-09-2022, 00:08:06,    161,    0.0,   14.8,   0.00,   0.00, 1008.8,   68.6, -999.0
04-09-2022, 00:08:15,    161,    0.0,   14.7,   0.00,   0.00, 1008.8,   68.6, -999.0
04-09-2022, 00:08:25,    161,    0.0,   14.8,   0.00,   0.00, 1008.8,   68.7, -999.0
04-09-2022, 00:08:36,    161,    0.0,   14.8,   0.00,   0.00, 1008.8,   68.7, -999.0
04-09-2022, 00:08:45,    161,    0.0,   14.7,   0.00,   0.00, 1008.8,   68.7, -999.0
04-09-2022, 00:08:55,    162,    0.0,   14.8,   0.00,   0.00, 1008.8,   68.7, -999.0
04-09-2022, 00:09:05,    162,    0.1,   14.8,   0.00,   0.00, 1008.9,   68.7, -999.0
04-09-2022, 00:09:15,    114,    1.0,   14.8,   0.00,   0.00, 1009.0,   69.1, -999.0
04-09-2022, 00:09:25,    199,    0.7,   14.9,   0.00,   0.00, 1009.0,   69.2, -999.0
04-09-2022, 00:09:35,    193,    0.7,   14.9,   0.00,   0.00, 1009.0,   69.1, -999.0
04-09-2022, 00:09:45,    169,    1.5,   14.9,   0.00,   0.00, 1009.0,   69.2, -999.0
04-09-2022, 00:09:55,    128,    1.9,   14.9,   0.00,   0.00, 1009.0,   69.2, -999.0
04-09-2022, 00:10:05,    113,    1.4,   14.8,   0.00,   0.00, 1009.0,   69.4, -999.0
04-09-2022, 00:10:15,    113,    0.9,   14.9,   0.00,   0.00, 1008.9,   69.3, -999.0
04-09-2022, 00:10:25,     95,    1.5,   14.9,   0.00,   0.00, 1009.0,   69.5, -999.0
04-09-2022, 00:10:35,    107,    0.9,   14.9,   0.00,   0.00, 1009.0,   69.5, -999.0
04-09-2022, 00:10:45,    112,    0.7,   14.9,   0.00,   0.00, 1008.9,   69.3, -999.0
04-09-2022, 00:10:54,    114,    0.0,   14.8,   0.00,   0.00, 1008.8,   69.1, -999.0
04-09-2022, 00:11:05,    114,    0.6,   14.9,   0.00,   0.00, 1009.0,   69.3, -999.0
04-09-2022, 00:11:15,    137,    1.1,   14.9,   0.00,   0.00, 1009.0,   69.3, -999.0
04-09-2022, 00:11:24,    145,    1.0,   14.9,   0.00,   0.00, 1009.0,   69.3, -999.0
04-09-2022, 00:11:34,    144,    0.0,   14.8,   0.00,   0.00, 1008.8,   69.0, -999.0
04-09-2022, 00:11:45,    145,    0.0,   14.8,   0.00,   0.00, 1008.9,   69.1, -999.0
04-09-2022, 00:11:54,    150,    1.0,   14.8,   0.00,   0.00, 1008.9,   69.3, -999.0
04-09-2022, 00:12:04,    154,    1.9,   14.9,   0.00,   0.00, 1009.0,   69.5, -999.0
04-09-2022, 00:12:14,    153,    0.4,   14.8,   0.00,   0.00, 1008.9,   69.3, -999.0
04-09-2022, 00:12:24,    154,    0.6,   14.7,   0.00,   0.00, 1008.9,   69.5, -999.0
04-09-2022, 00:12:34,    153,    0.6,   14.8,   0.00,   0.00, 1009.0,   69.5, -999.0
04-09-2022, 00:12:44,    153,    0.0,   14.6,   0.00,   0.00, 1008.9,   69.0, -999.0
04-09-2022, 00:12:54,    153,    0.0,   14.6,   0.00,   0.00, 1008.9,   69.2, -999.0
04-09-2022, 00:13:04,    153,    0.1,   14.8,   0.00,   0.00, 1008.9,   69.5, -999.0
04-09-2022, 00:13:14,    153,    0.8,   14.8,   0.00,   0.00, 1009.0,   69.5, -999.0
04-09-2022, 00:13:24,    182,    0.7,   14.9,   0.00,   0.00, 1009.0,   69.6, -999.0
04-09-2022, 00:13:34,    182,    1.6,   14.9,   0.00,   0.00, 1009.0,   69.6, -999.0
04-09-2022, 00:13:44,    182,    0.5,   14.9,   0.00,   0.00, 1009.0,   69.7, -999.0
04-09-2022, 00:13:54,    182,    0.0,   14.8,   0.00,   0.00, 1008.9,   69.4, -999.0
04-09-2022, 00:14:03,    182,    0.0,   14.7,   0.00,   0.00, 1008.9,   69.3, -999.0
04-09-2022, 00:14:14,    182,    0.6,   14.8,   0.00,   0.00, 1009.0,   69.7, -999.0
04-09-2022, 00:14:24,    182,    0.4,   14.9,   0.00,   0.00, 1009.0,   69.6, -999.0
04-09-2022, 00:14:33,    182,    0.1,   14.7,   0.00,   0.00, 1008.9,   69.4, -999.0
04-09-2022, 00:14:43,    182,    0.4,   14.8,   0.00,   0.00, 1009.0,   69.6, -999.0
04-09-2022, 00:14:53,    182,    0.7,   14.9,   0.00,   0.00, 1009.0,   69.7, -999.0
04-09-2022, 00:15:03,    182,    1.5,   14.9,   0.00,   0.00, 1009.0,   69.7, -999.0
04-09-2022, 00:15:13,    181,    0.7,   14.9,   0.00,   0.00, 1009.0,   69.6, -999.0
04-09-2022, 00:15:23,    181,    0.2,   14.9,   0.00,   0.00, 1008.9,   69.4, -999.0
04-09-2022, 00:15:33,    181,    0.0,   14.7,   0.00,   0.00, 1008.9,   69.3, -999.0
04-09-2022, 00:15:43,    181,    0.0,   14.8,   0.00,   0.00, 1008.8,   69.3, -999.0
04-09-2022, 00:15:53,    181,    0.0,   14.8,   0.00,   0.00, 1008.9,   69.2, -999.0
04-09-2022, 00:16:03,    181,    0.0,   14.7,   0.00,   0.00, 1008.8,   69.3, -999.0
04-09-2022, 00:16:13,    181,    0.0,   14.8,   0.00,   0.00, 1008.9,   69.2, -999.0
04-09-2022, 00:16:23,    182,    0.8,   14.8,   0.00,   0.00, 1009.0,   69.6, -999.0
04-09-2022, 00:16:33,    182,    1.8,   14.9,   0.00,   0.00, 1009.0,   69.7, -999.0
04-09-2022, 00:16:43,    182,    1.1,   14.8,   0.00,   0.00, 1009.0,   69.7, -999.0
04-09-2022, 00:16:53,    181,    0.6,   14.8,   0.00,   0.00, 1009.0,   69.9, -999.0
04-09-2022, 00:17:03,    181,    0.5,   14.8,   0.00,   0.00, 1009.0,   69.7, -999.0
04-09-2022, 00:17:12,    182,    1.1,   14.8,   0.00,   0.00, 1009.0,   69.9, -999.0
04-09-2022, 00:17:23,    181,    1.7,   14.8,   0.00,   0.00, 1009.0,   70.0, -999.0
04-09-2022, 00:17:32,    168,    1.5,   14.8,   0.00,   0.00, 1009.0,   70.0, -999.0
04-09-2022, 00:17:42,    168,    1.4,   14.8,   0.00,   0.00, 1009.0,   70.1, -999.0
04-09-2022, 00:17:53,    168,    1.1,   14.8,   0.00,   0.00, 1009.0,   70.0, -999.0
04-09-2022, 00:18:02,    168,    0.2,   14.7,   0.00,   0.00, 1008.9,   69.8, -999.0
04-09-2022, 00:18:12,    168,    0.6,   14.8,   0.00,   0.00, 1009.0,   70.1, -999.0
04-09-2022, 00:18:22,    168,    0.4,   14.7,   0.00,   0.00, 1009.0,   70.0, -999.0
04-09-2022, 00:18:32,    168,    0.3,   14.7,   0.00,   0.00, 1009.0,   70.0, -999.0
04-09-2022, 00:18:42,    153,    0.9,   14.8,   0.00,   0.00, 1009.0,   70.0, -999.0
04-09-2022, 00:18:52,    152,    0.9,   14.8,   0.00,   0.00, 1009.0,   70.2, -999.0
04-09-2022, 00:19:02,    152,    1.2,   14.9,   0.00,   0.00, 1009.0,   70.2, -999.0
04-09-2022, 00:19:13,    152,    0.8,   14.9,   0.00,   0.00, 1009.0,   70.3, -999.0
04-09-2022, 00:19:22,    151,    0.0,   14.8,   0.00,   0.00, 1008.9,   69.8, -999.0
04-09-2022, 00:19:32,    152,    0.0,   14.7,   0.00,   0.00, 1008.9,   69.7, -999.0
04-09-2022, 00:19:42,    152,    0.2,   14.8,   0.00,   0.00, 1009.0,   70.1, -999.0
04-09-2022, 00:19:52,    152,    0.2,   14.8,   0.00,   0.00, 1008.9,   69.9, -999.0
04-09-2022, 00:20:02,    155,    0.5,   14.8,   0.00,   0.00, 1009.0,   69.9, -999.0
04-09-2022, 00:20:11,    155,    0.4,   14.8,   0.00,   0.00, 1009.0,   70.1, -999.0
04-09-2022, 00:20:22,    155,    0.2,   14.8,   0.00,   0.00, 1009.0,   70.0, -999.0
04-09-2022, 00:20:32,    154,    0.1,   14.9,   0.00,   0.00, 1009.0,   69.9, -999.0
04-09-2022, 00:20:41,    155,    0.7,   14.9,   0.00,   0.00, 1009.0,   70.2, -999.0
04-09-2022, 00:20:51,    155,    0.0,   14.8,   0.00,   0.00, 1008.9,   69.8, -999.0
04-09-2022, 00:21:02,    155,    0.0,   14.7,   0.00,   0.00, 1008.9,   69.8, -999.0
04-09-2022, 00:21:11,    155,    0.0,   14.7,   0.00,   0.00, 1009.0,   70.1, -999.0
04-09-2022, 00:21:21,    155,    0.0,   14.7,   0.00,   0.00, 1008.9,   70.0, -999.0
04-09-2022, 00:21:31,    154,    0.0,   14.7,   0.00,   0.00, 1009.0,   70.0, -999.0
04-09-2022, 00:21:41,    160,    0.3,   14.7,   0.00,   0.00, 1009.0,   70.2, -999.0
04-09-2022, 00:21:51,    160,    0.0,   14.7,   0.00,   0.00, 1008.9,   70.1, -999.0
04-09-2022, 00:22:01,    160,    0.0,   14.7,   0.00,   0.00, 1009.0,   70.1, -999.0
04-09-2022, 00:22:11,    159,    0.0,   14.8,   0.00,   0.00, 1009.0,   70.2, -999.0
04-09-2022, 00:22:21,    159,    0.1,   14.8,   0.00,   0.00, 1009.0,   70.3, -999.0
04-09-2022, 00:22:31,    159,    0.0,   14.8,   0.00,   0.00, 1008.9,   70.2, -999.0
04-09-2022, 00:22:41,    159,    0.8,   14.8,   0.00,   0.00, 1009.0,   70.4, -999.0
04-09-2022, 00:22:51,    159,    0.3,   14.8,   0.00,   0.00, 1009.0,   70.3, -999.0
04-09-2022, 00:23:01,    153,    1.3,   14.8,   0.00,   0.00, 1009.0,   70.5, -999.0
04-09-2022, 00:23:11,    153,    0.2,   14.7,   0.00,   0.00, 1009.0,   70.4, -999.0
04-09-2022, 00:23:20,    156,    0.2,   14.7,   0.00,   0.00, 1009.0,   70.4, -999.0
04-09-2022, 00:23:31,    156,    0.0,   14.7,   0.00,   0.00, 1009.0,   70.3, -999.0
04-09-2022, 00:23:41,    155,    0.0,   14.7,   0.00,   0.00, 1008.9,   70.5, -999.0
04-09-2022, 00:23:50,    155,    0.0,   14.7,   0.00,   0.00, 1008.9,   70.3, -999.0
04-09-2022, 00:24:00,    151,    0.8,   14.7,   0.00,   0.00, 1009.0,   70.6, -999.0
04-09-2022, 00:24:10,    151,    0.4,   14.7,   0.00,   0.00, 1009.0,   70.7, -999.0
04-09-2022, 00:24:20,    148,    2.4,   14.8,   0.00,   0.00, 1009.0,   70.9, -999.0
04-09-2022, 00:24:30,    166,    2.2,   14.8,   0.00,   0.00, 1009.0,   71.1, -999.0
04-09-2022, 00:24:40,    166,    0.5,   14.7,   0.00,   0.00, 1009.0,   71.1, -999.0
04-09-2022, 00:24:50,    108,    0.6,   14.7,   0.00,   0.00, 1009.0,   71.0, -999.0
04-09-2022, 00:25:00,     95,    1.2,   14.8,   0.00,   0.00, 1009.0,   71.2, -999.0
04-09-2022, 00:25:10,    110,    1.0,   14.8,   0.00,   0.00, 1009.0,   71.2, -999.0
04-09-2022, 00:25:20,    112,    0.4,   14.8,   0.00,   0.00, 1009.0,   71.1, -999.0
04-09-2022, 00:25:30,    108,    1.0,   14.9,   0.00,   0.00, 1009.0,   71.2, -999.0
04-09-2022, 00:25:40,    131,    0.6,   14.9,   0.00,   0.00, 1009.0,   71.2, -999.0
04-09-2022, 00:25:50,    131,    0.1,   14.8,   0.00,   0.00, 1009.0,   71.0, -999.0
04-09-2022, 00:26:00,    131,    0.0,   14.8,   0.00,   0.00, 1008.9,   70.6, -999.0
04-09-2022, 00:26:10,    237,    1.1,   14.8,   0.00,   0.00, 1009.0,   71.0, -999.0
04-09-2022, 00:26:20,    142,    1.8,   14.8,   0.00,   0.00, 1009.0,   71.0, -999.0
04-09-2022, 00:26:29,    154,    1.9,   14.8,   0.00,   0.00, 1009.0,   71.1, -999.0
04-09-2022, 00:26:40,    157,    1.9,   14.8,   0.00,   0.00, 1009.0,   71.2, -999.0
04-09-2022, 00:26:49,    157,    0.1,   14.7,   0.00,   0.00, 1008.9,   71.0, -999.0
04-09-2022, 00:26:59,    124,    0.6,   14.7,   0.00,   0.00, 1008.9,   71.1, -999.0
04-09-2022, 00:27:09,    124,    0.4,   14.7,   0.00,   0.00, 1009.0,   71.4, -999.0
04-09-2022, 00:27:19,    166,    0.2,   14.8,   0.00,   0.00, 1009.0,   71.3, -999.0
04-09-2022, 00:27:29,    142,    2.4,   14.7,   0.00,   0.00, 1009.0,   71.4, -999.0
04-09-2022, 00:27:39,    182,    2.0,   14.8,   0.00,   0.00, 1009.0,   71.5, -999.0
04-09-2022, 00:27:49,    171,    1.5,   14.8,   0.00,   0.00, 1009.0,   71.6, -999.0
04-09-2022, 00:27:59,    171,    0.9,   14.7,   0.00,   0.00, 1009.0,   71.6, -999.0
04-09-2022, 00:28:09,    170,    0.2,   14.7,   0.00,   0.00, 1008.9,   71.5, -999.0
04-09-2022, 00:28:19,    170,    0.0,   14.5,   0.00,   0.00, 1008.8,   71.3, -999.0
04-09-2022, 00:28:29,    170,    0.0,   14.6,   0.00,   0.00, 1008.9,   71.2, -999.0
04-09-2022, 00:28:39,    170,    0.0,   14.7,   0.00,   0.00, 1008.9,   71.3, -999.0
04-09-2022, 00:28:49,    171,    0.0,   14.7,   0.00,   0.00, 1008.9,   71.4, -999.0
04-09-2022, 00:28:59,    141,    1.1,   14.6,   0.00,   0.00, 1008.9,   71.4, -999.0
04-09-2022, 00:29:09,    163,    3.3,   14.8,   0.00,   0.00, 1009.0,   71.8, -999.0
04-09-2022, 00:29:19,    145,    2.6,   14.8,   0.00,   0.00, 1009.0,   72.0, -999.0
04-09-2022, 00:29:28,    145,    1.6,   14.8,   0.00,   0.00, 1009.0,   72.0, -999.0
04-09-2022, 00:29:38,    145,    0.4,   14.7,   0.00,   0.00, 1009.0,   71.9, -999.0
04-09-2022, 00:29:49,    144,    0.7,   14.7,   0.00,   0.00, 1008.9,   71.9, -999.0
04-09-2022, 00:29:58,    144,    0.5,   14.8,   0.00,   0.00, 1009.0,   71.9, -999.0
04-09-2022, 00:30:08,    144,    0.3,   14.7,   0.00,   0.00, 1008.9,   71.8, -999.0
04-09-2022, 00:30:18,    153,    0.9,   14.7,   0.00,   0.00, 1009.0,   72.0, -999.0
04-09-2022, 00:30:28,    152,    0.6,   14.8,   0.00,   0.00, 1009.0,   71.9, -999.0
04-09-2022, 00:30:38,    152,    0.1,   14.7,   0.00,   0.00, 1008.9,   71.7, -999.0
04-09-2022, 00:30:48,    152,    0.1,   14.6,   0.00,   0.00, 1008.9,   71.8, -999.0
04-09-2022, 00:30:58,    152,    0.8,   14.8,   0.00,   0.00, 1009.0,   71.9, -999.0
04-09-2022, 00:31:08,    178,    1.9,   14.7,   0.00,   0.00, 1009.0,   72.1, -999.0
04-09-2022, 00:31:18,    156,    1.3,   14.7,   0.00,   0.00, 1009.0,   72.2, -999.0
04-09-2022, 00:31:28,    154,    2.5,   14.8,   0.00,   0.00, 1009.0,   72.2, -999.0
04-09-2022, 00:31:38,    153,    2.0,   14.7,   0.00,   0.00, 1009.0,   72.3, -999.0
04-09-2022, 00:31:48,    153,    1.0,   14.7,   0.00,   0.00, 1009.0,   72.3, -999.0
04-09-2022, 00:31:58,    153,    1.0,   14.8,   0.00,   0.00, 1009.0,   72.4, -999.0
04-09-2022, 00:32:07,    153,    0.4,   14.8,   0.00,   0.00, 1009.0,   72.3, -999.0
04-09-2022, 00:32:18,    153,    1.2,   14.8,   0.00,   0.00, 1009.0,   72.4, -999.0
04-09-2022, 00:32:28,    153,    1.9,   14.9,   0.00,   0.00, 1009.0,   72.4, -999.0
04-09-2022, 00:32:37,    153,    0.9,   14.8,   0.00,   0.00, 1008.9,   72.4, -999.0
04-09-2022, 00:32:47,    153,    0.5,   14.8,   0.00,   0.00, 1009.0,   72.3, -999.0
04-09-2022, 00:32:58,    153,    0.3,   14.8,   0.00,   0.00, 1009.0,   72.1, -999.0
04-09-2022, 00:33:07,    153,    0.8,   14.8,   0.00,   0.00, 1009.0,   72.2, -999.0
04-09-2022, 00:33:17,    153,    0.9,   14.8,   0.00,   0.00, 1009.0,   72.2, -999.0
04-09-2022, 00:33:27,    153,    0.1,   14.8,   0.00,   0.00, 1008.9,   71.8, -999.0
04-09-2022, 00:33:37,    153,    0.0,   14.8,   0.00,   0.00, 1008.8,   71.8, -999.0
04-09-2022, 00:33:47,    153,    0.0,   14.8,   0.00,   0.00, 1008.8,   71.7, -999.0
04-09-2022, 00:33:57,    153,    0.5,   14.8,   0.00,   0.00, 1008.9,   71.9, -999.0
04-09-2022, 00:34:07,    153,    0.3,   15.0,   0.00,   0.00, 1009.0,   71.9, -999.0
04-09-2022, 00:34:17,    153,    0.4,   15.0,   0.00,   0.00, 1008.9,   71.8, -999.0
04-09-2022, 00:34:27,    153,    0.7,   15.0,   0.00,   0.00, 1009.0,   72.0, -999.0
04-09-2022, 00:34:37,    153,    1.0,   15.0,   0.00,   0.00, 1009.0,   71.9, -999.0
04-09-2022, 00:34:47,    152,    1.8,   14.9,   0.00,   0.00, 1009.0,   72.0, -999.0
04-09-2022, 00:34:57,    152,    0.7,   14.9,   0.00,   0.00, 1009.0,   71.9, -999.0
04-09-2022, 00:35:07,    152,    1.2,   14.9,   0.00,   0.00, 1009.0,   72.0, -999.0
04-09-2022, 00:35:16,    152,    0.7,   14.9,   0.00,   0.00, 1008.9,   72.0, -999.0
04-09-2022, 00:35:27,    152,    1.2,   15.0,   0.00,   0.00, 1009.0,   72.0, -999.0
04-09-2022, 00:35:37,    152,    1.5,   14.9,   0.00,   0.00, 1009.0,   72.1, -999.0
04-09-2022, 00:35:46,    152,    1.2,   14.9,   0.00,   0.00, 1009.0,   72.2, -999.0
04-09-2022, 00:35:56,    152,    0.3,   14.9,   0.00,   0.00, 1008.9,   72.0, -999.0
04-09-2022, 00:36:06,    152,    0.0,   14.7,   0.00,   0.00, 1008.8,   71.9, -999.0
04-09-2022, 00:36:16,    152,    0.1,   14.7,   0.00,   0.00, 1008.9,   72.0, -999.0
04-09-2022, 00:36:26,    152,    0.0,   14.8,   0.00,   0.00, 1008.9,   72.0, -999.0
04-09-2022, 00:36:36,    152,    0.1,   14.7,   0.00,   0.00, 1008.9,   72.2, -999.0
04-09-2022, 00:36:46,    152,    0.2,   14.8,   0.00,   0.00, 1008.9,   72.2, -999.0
04-09-2022, 00:36:56,    152,    0.4,   14.8,   0.00,   0.00, 1008.9,   72.1, -999.0
04-09-2022, 00:37:06,    152,    0.1,   14.8,   0.00,   0.00, 1008.9,   72.1, -999.0
04-09-2022, 00:37:16,    152,    0.0,   14.8,   0.00,   0.00, 1008.9,   72.0, -999.0
04-09-2022, 00:37:26,    152,    0.0,   14.8,   0.00,   0.00, 1008.9,   72.1, -999.0
04-09-2022, 00:37:36,    152,    0.0,   14.8,   0.00,   0.00, 1008.9,   72.0, -999.0
04-09-2022, 00:37:46,    152,    0.3,   14.8,   0.00,   0.00, 1008.9,   72.1, -999.0
04-09-2022, 00:37:56,    152,    0.2,   14.8,   0.00,   0.00, 1008.9,   72.2, -999.0
04-09-2022, 00:38:06,    152,    0.3,   14.8,   0.00,   0.00, 1008.9,   72.2, -999.0
04-09-2022, 00:38:16,    152,    1.4,   14.8,   0.00,   0.00, 1009.0,   72.5, -999.0
04-09-2022, 00:38:26,    152,    0.5,   14.8,   0.00,   0.00, 1008.9,   72.4, -999.0
04-09-2022, 00:38:36,    152,    1.1,   14.9,   0.00,   0.00, 1009.0,   72.6, -999.0
04-09-2022, 00:38:45,    151,    0.7,   14.8,   0.00,   0.00, 1009.0,   72.5, -999.0
04-09-2022, 00:38:55,    150,    1.8,   14.8,   0.00,   0.00, 1009.0,   72.6, -999.0
04-09-2022, 00:39:06,    150,    1.5,   14.7,   0.00,   0.00, 1009.0,   72.6, -999.0
04-09-2022, 00:39:15,    150,    1.1,   14.8,   0.00,   0.00, 1009.0,   72.8, -999.0
04-09-2022, 00:39:25,    150,    1.1,   14.8,   0.00,   0.00, 1009.0,   72.7, -999.0
04-09-2022, 00:39:35,    169,    1.7,   14.8,   0.00,   0.00, 1009.0,   72.7, -999.0
04-09-2022, 00:39:45,    163,    1.3,   14.7,   0.00,   0.00, 1009.0,   72.8, -999.0
04-09-2022, 00:39:55,    161,    1.5,   14.8,   0.00,   0.00, 1009.0,   72.9, -999.0
04-09-2022, 00:40:07,    161,    0.8,   14.7,   0.00,   0.00, 1009.0,   72.9, -999.0
04-09-2022, 00:40:15,    161,    0.1,   14.7,   0.00,   0.00, 1008.8,   72.7, -999.0
04-09-2022, 00:40:25,    161,    0.4,   14.7,   0.00,   0.00, 1008.9,   72.8, -999.0
04-09-2022, 00:40:35,    161,    1.4,   14.8,   0.00,   0.00, 1009.0,   73.0, -999.0
04-09-2022, 00:40:45,    161,    1.1,   14.7,   0.00,   0.00, 1009.0,   72.9, -999.0
04-09-2022, 00:40:55,    161,    0.7,   14.7,   0.00,   0.00, 1009.0,   73.0, -999.0
04-09-2022, 00:41:05,    161,    0.0,   14.7,   0.00,   0.00, 1008.8,   72.7, -999.0
04-09-2022, 00:41:15,    160,    0.2,   14.7,   0.00,   0.00, 1008.9,   72.9, -999.0
04-09-2022, 00:41:24,    161,    0.2,   14.7,   0.00,   0.00, 1008.9,   72.9, -999.0
04-09-2022, 00:41:35,    160,    0.0,   14.6,   0.00,   0.00, 1008.8,   72.7, -999.0
04-09-2022, 00:41:45,    160,    0.0,   14.6,   0.00,   0.00, 1008.8,   72.6, -999.0
04-09-2022, 00:41:54,    160,    0.6,   14.8,   0.00,   0.00, 1008.9,   72.9, -999.0
04-09-2022, 00:42:04,    160,    0.9,   14.8,   0.00,   0.00, 1008.9,   72.9, -999.0
04-09-2022, 00:42:15,    160,    0.4,   14.9,   0.00,   0.00, 1008.9,   72.9, -999.0
04-09-2022, 00:42:24,    160,    0.0,   14.8,   0.00,   0.00, 1008.8,   72.6, -999.0
04-09-2022, 00:42:34,    160,    0.0,   14.8,   0.00,   0.00, 1008.9,   72.6, -999.0
04-09-2022, 00:42:44,    160,    0.1,   14.8,   0.00,   0.00, 1008.9,   72.6, -999.0
04-09-2022, 00:42:54,    160,    0.5,   14.8,   0.00,   0.00, 1008.9,   72.8, -999.0
04-09-2022, 00:43:04,    160,    0.0,   14.7,   0.00,   0.00, 1008.9,   72.6, -999.0
04-09-2022, 00:43:14,    160,    0.0,   14.7,   0.00,   0.00, 1008.9,   72.5, -999.0
04-09-2022, 00:43:24,    160,    0.0,   14.8,   0.00,   0.00, 1008.9,   72.7, -999.0
04-09-2022, 00:43:34,    160,    0.9,   14.7,   0.00,   0.00, 1009.0,   73.0, -999.0
04-09-2022, 00:43:44,    160,    0.0,   14.7,   0.00,   0.00, 1008.8,   72.7, -999.0
04-09-2022, 00:43:54,    159,    0.0,   14.6,   0.00,   0.00, 1008.8,   72.7, -999.0
04-09-2022, 00:44:04,    114,    0.6,   14.7,   0.00,   0.00, 1008.9,   73.0, -999.0
04-09-2022, 00:44:14,    126,    0.5,   14.8,   0.00,   0.00, 1008.9,   73.0, -999.0
04-09-2022, 00:44:24,    122,    1.4,   14.8,   0.00,   0.00, 1009.0,   73.2, -999.0
04-09-2022, 00:44:33,    119,    0.9,   14.8,   0.00,   0.00, 1009.0,   73.3, -999.0
04-09-2022, 00:44:44,    120,    0.8,   14.7,   0.00,   0.00, 1009.0,   73.4, -999.0
04-09-2022, 00:44:54,    138,    0.2,   14.8,   0.00,   0.00, 1008.9,   73.1, -999.0
04-09-2022, 00:45:03,    140,    0.3,   14.7,   0.00,   0.00, 1008.9,   73.2, -999.0
04-09-2022, 00:45:13,    140,    1.4,   14.8,   0.00,   0.00, 1009.0,   73.4, -999.0
04-09-2022, 00:45:23,    103,    1.3,   14.7,   0.00,   0.00, 1009.0,   73.4, -999.0
04-09-2022, 00:45:33,    133,    1.4,   14.8,   0.00,   0.00, 1009.0,   73.4, -999.0
04-09-2022, 00:45:43,    132,    0.5,   14.8,   0.00,   0.00, 1009.0,   73.4, -999.0
04-09-2022, 00:45:53,    132,    0.0,   14.7,   0.00,   0.00, 1008.8,   73.2, -999.0
04-09-2022, 00:46:03,    132,    0.0,   14.6,   0.00,   0.00, 1008.8,   73.1, -999.0
04-09-2022, 00:46:13,    132,    0.0,   14.7,   0.00,   0.00, 1008.8,   73.0, -999.0
04-09-2022, 00:46:23,    132,    0.0,   14.7,   0.00,   0.00, 1008.9,   73.1, -999.0
04-09-2022, 00:46:33,    133,    0.1,   14.8,   0.00,   0.00, 1008.9,   73.2, -999.0
04-09-2022, 00:46:43,    143,    0.2,   14.8,   0.00,   0.00, 1008.9,   73.3, -999.0